Weather History for MDST - March, 2014

Change the Weather History Date:

Thursday, March 27, 2014

  Actual Average Record
Temperature  
Mean Temperature 78 °F -  
Max Temperature 88 °F 88 °F 93 °F (2013)
Min Temperature 67 °F 68 °F 64 °F (2009)
Cooling Degree Days 12    
Growing Degree Days 28 (Base 50)    
Moisture  
Dew Point 69 °F    
Average Humidity 76    
Maximum Humidity 100    
Minimum Humidity 49    
Precipitation  
Precipitation 0.00 in 0.13 in - ()
Sea Level Pressure  
Sea Level Pressure 30.09 in    
Wind  
Wind Speed 5 mph ()    
Max Wind Speed 18 mph    
Max Gust Speed -    
Visibility 5.9 miles    
Events      
Averages and records for this station are not official NWS values.
T = Trace of Precipitation, MM = Missing Value Source: Averaged Metar Reports

Daily Weather History Graph

Daily Weather History Graph

Search for Another Location

Airport or City:

Trip Planner

Search our weather history database for the weather conditions in past years. The results will help you decide how hot, cold, wet, or windy it might be!

Date:

Astronomy

Mar. 27, 2014 Rise Set
Actual Time 6:40 AM AST 6:55 PM AST
Civil Twilight 6:18 AM AST 7:17 PM AST
Nautical Twilight 5:52 AM AST 7:42 PM AST
Astronomical Twilight 5:27 AM AST 8:08 PM AST
Moon 4:02 AM AST (3/27) 4:02 PM AST (3/27)
Length of Visible Light 12h 58m
Length of Day
12h 14m
Waning Crescent, 13% of the Moon is Illuminated
Mar 27
Waning Crescent
Mar 30
New
Apr 7
First Quarter
Apr 15
Full
Apr 22
Last Quarter

Hourly Weather History & Observations

Time (AST) Temp. Heat Index Dew Point Humidity Pressure Visibility Wind Dir Wind Speed Gust Speed Precip Events Conditions
12:00 AM 73.4 °F - 69.8 °F 88% 30.09 in 6.2 mi ESE 5.8 mph - N/A   Scattered Clouds
1:00 AM 73.4 °F - 69.8 °F 88% 30.09 in 6.2 mi Calm Calm - N/A   Scattered Clouds
2:00 AM 71 °F - 68 °F 87% 30.08 in 6 mi Calm Calm - -   Widespread Dust
2:00 AM 69.8 °F - 68.0 °F 94% 30.01 in 6.2 mi Calm Calm - N/A   Scattered Clouds
3:00 AM 71.6 °F - 69.8 °F 94% 30.04 in 6.2 mi Calm Calm - N/A   Scattered Clouds
4:00 AM 73.4 °F - 69.8 °F 88% 30.04 in 6.2 mi Calm Calm - N/A   Scattered Clouds
6:00 AM 71.6 °F - 71.6 °F 100% 30.06 in 6.2 mi Calm Calm - N/A   Mostly Cloudy
7:00 AM 71.6 °F - 71.6 °F 100% 30.09 in 6.2 mi Calm Calm - N/A   Mostly Cloudy
8:00 AM 73 °F - 72 °F 98% 30.12 in 2 mi Calm Calm - -   Mist
8:00 AM 73.4 °F - 71.6 °F 94% 30.12 in 1.9 mi Calm Calm - N/A   Mist
9:00 AM 73.4 °F - 73.4 °F 100% 30.12 in 3.1 mi East 4.6 mph - N/A   Mist
10:00 AM 77.0 °F - 73.4 °F 89% 30.15 in 3.1 mi SE 6.9 mph - N/A   Mostly Cloudy
11:00 AM 78 °F - 71 °F 72% 30.17 in 7 mi SE 6.7 mph - -   Widespread Dust
11:00 AM 78.8 °F - 69.8 °F 74% 30.15 in 6.2 mi SE 8.1 mph - N/A   Mostly Cloudy
12:00 PM 82.4 °F 86.3 °F 69.8 °F 66% 30.15 in 6.2 mi ESE 10.4 mph - N/A   Mostly Cloudy
1:00 PM 84.2 °F 87.3 °F 68.0 °F 58% 30.12 in 5.0 mi ESE 13.8 mph - N/A   Mostly Cloudy
2:00 PM 85 °F - 69 °F 49% 30.09 in 7 mi SE 8.9 mph - -   Widespread Dust
2:00 PM 84.2 °F 87.3 °F 68.0 °F 58% 30.09 in 6.2 mi SE 9.2 mph - N/A   Scattered Clouds
3:00 PM 86.0 °F 89.4 °F 68.0 °F 55% 30.09 in 6.2 mi ESE 15.0 mph - N/A   Mostly Cloudy
4:00 PM 87.8 °F 91.4 °F 68.0 °F 52% 30.04 in 6.2 mi East 18.4 mph - N/A   Mostly Cloudy
5:00 PM 86 °F - 71 °F 52% 30.04 in 7 mi ESE 13.4 mph - -   Widespread Dust
5:00 PM 80.6 °F 82.3 °F 64.4 °F 58% 30.04 in 6.2 mi East 17.3 mph - N/A   Scattered Clouds
6:00 PM 80.6 °F 82.3 °F 64.4 °F 58% 30.04 in 6.2 mi East 17.3 mph - N/A   Scattered Clouds
7:00 PM 80.6 °F 83.2 °F 68.0 °F 65% 30.06 in 6.2 mi ESE 13.8 mph - N/A   Scattered Clouds
8:00 PM 78 °F - 69 °F 66% 30.10 in 7 mi SE 13.4 mph - -   Widespread Dust
8:00 PM 78.8 °F - 68.0 °F 69% 30.09 in 6.2 mi SE 11.5 mph - N/A   Scattered Clouds
9:00 PM 77.0 °F - 69.8 °F 78% 30.09 in 6.2 mi SE 12.7 mph - N/A   Scattered Clouds
10:00 PM 77.0 °F - 69.8 °F 78% 30.12 in 6.2 mi ESE 11.5 mph - N/A   Scattered Clouds
11:00 PM 77 °F - 69 °F 68% 30.13 in 9 mi ESE 6.7 mph - -   Widespread Dust
11:00 PM 77.0 °F - 68.0 °F 74% 30.12 in 6.2 mi ESE 10.4 mph - N/A   Scattered Clouds